DELTA 1 DEB, 10649

Orbit data source: Space-Track

DELTA 1 DEB, 10649 is space debris in LEO originally from a launch on Thu, 29 Jul 1976 UTC launched from the Air Force Western Test Range (AFWTR). Debris objects in space refer to the collection of defunct objects orbiting the Earth. Examples of debris include non-operational satellites, rocket bodies, and fragments generated from explosions, collisions, or faulty payload assembly.

Loading next visibility...
Identifier
10649, 1976-077K
Orbit
LEO
Country
Flag of USUS
Related business
Manufacturer
Unknown
Mission
Spacecraft
Bus & Motor
Unknown
Mass
Unknown
Launch date (UTC)
1976-07-29 (49 years ago)
Launch vehicle
Unknown
Launch site
Air Force Western Test Range (AFWTR)
Object type
Payload
Rocket body
Debris
Shape & HBR
Unknown shape, 0.3 m
Radar Cross Section
Small (<0.1 m²)

Expand to show TLE details & history
Last TLE update: 17 hours ago

TLE from 17 hours ago
0 DELTA 1 DEB
1 10649U 76077K   25292.13530910  .00000088  00000-0  16306-2 0  9993
2 10649 102.2701 236.7089 0375645 129.1767 248.3924 11.80232512107873
Epoch: 2025-10-19T03:14Z
TLE epoch observation values (Epoch: 2025-10-19T03:14:50.706Z)
Latitude
13.29206°
Longitude
157.20988°
Altitude
1,894.798 km
Speed
6.891 km/s
True Right ascension
15h 35m 06s
True Declination
13° 13' 33"
Sunlit
Object was in daylight at epoch
Visualization orbit readout
Latitude
Unknown
Longitude
Unknown
Altitude
Unknown
Speed
Unknown
Apparent Right ascension
Unknown
Apparent Declination
Unknown
Sunlit
N/A
Visualization observer readout
Local Sidereal Time
15:38:21
Azimuth
Unknown
Elevation
Unknown
Doppler factor
Unknown
Orbital elements
Apogee altitude
2,074.276 km
Perigee altitude
1,462.246 km
Semi-major axis
8,146.398 km
Eccentricity
0.03756
Inclination
102.2701°
RAAN
236.7089°
Arg. of periapsis
129.1767°
True anomaly
244.46147°
Mean anomaly
248.3924°
Eccentric anomaly
246.41983°
Mean motion
2.95185 °/min
Orbital period
121.96 mins
BSTAR
0.0016306
Loading maneuver chart data...
Computing Atmospheric mass density...
Loading historical data...
Loading historical data...
Loading historical data...
Loading historical data...
Loading historical data...
Loading historical data...
Loading historical data...

Documentation

Showing up to 5 results
|